Theta_e
316 317 318 318 317 317 319 320 320 319 317 318 317 316 313 312 309 308 308 307 311 325 334 337 336 336 333 332 332 333 336 338 339 338 335 332 325 316 312 311 311 310 310 310
316 318 317 318 320 321 321 321 322 319 318 318 318 318 314 311 310 310 309 307 308 312 321 333 335 334 334 333 333 334 336 337 338 334 330 323 317 313 312 311 311 310 310 310
319 318 319 321 322 322 322 322 321 322 321 318 317 318 315 312 309 309 308 309 314 311 318 334 335 334 334 334 334 335 336 335 331 333 325 319 316 317 315 310 309 310 310 310
314 316 317 321 322 322 323 321 322 325 326 329 320 325 318 314 311 312 317 315 317 318 326 334 335 334 334 334 336 335 335 329 329 329 323 320 320 318 317 313 312 313 309 310
311 312 316 322 320 320 321 320 323 323 323 324 322 324 316 313 322 322 321 321 320 318 331 335 334 334 334 336 336 336 332 327 326 324 323 322 323 322 322 321 315 309 309 309
311 311 318 320 318 318 319 323 321 318 319 322 323 324 316 324 324 323 322 321 321 321 334 334 334 334 335 337 337 336 334 331 327 326 325 325 324 324 327 321 321 312 310 308
310 312 312 317 316 316 321 322 323 316 318 325 322 324 317 318 320 323 322 321 324 324 329 336 333 333 335 336 336 333 332 329 328 327 329 329 326 326 327 326 319 312 315 309
312 312 314 315 315 316 322 322 328 322 324 324 322 326 326 321 321 324 323 324 326 328 331 331 332 332 333 335 333 332 331 330 329 327 327 327 326 326 325 322 314 313 315 310
312 313 312 314 312 318 320 322 320 321 322 320 323 324 322 323 324 326 325 321 322 325 326 327 328 331 332 336 332 333 332 329 328 327 328 322 324 324 319 318 314 314 310 309
311 313 311 311 314 316 321 317 324 322 326 325 321 318 321 319 322 320 327 321 319 318 318 319 320 322 324 326 329 330 329 326 325 325 325 323 321 319 317 314 313 311 309 309
310 309 309 309 312 312 311 312 323 320 325 328 322 319 314 315 315 316 319 317 316 313 311 312 310 312 313 321 327 329 327 326 321 319 317 315 314 314 313 311 310 309 308 308
310 307 310 309 309 309 310 311 318 319 318 324 324 319 311 310 312 314 314 316 313 312 310 307 307 308 308 310 312 312 312 313 310 309 309 309 309 308 308 307 306 306 305 304
309 308 307 307 308 308 310 310 310 319 315 319 316 317 312 310 310 310 313 311 310 310 307 305 304 304 304 304 305 306 307 307 306 307 307 306 305 305 304 304 303 302 302 301
309 308 306 306 307 309 310 311 310 312 308 308 312 312 309 312 312 311 309 308 307 306 305 303 302 301 302 303 303 304 304 305 305 305 304 303 302 302 301 300 300 300 299 299
305 307 308 308 309 309 310 311 311 310 310 309 310 312 311 310 311 311 309 308 307 305 304 302 301 299 301 302 302 302 302 303 303 302 301 300 300 300 299 299 298 298 298 298
300 299 307 309 310 311 312 311 311 308 307 311 311 313 309 309 309 310 309 308 306 304 303 302 300 300 300 301 302 302 302 302 302 301 300 299 299 299 299 299 298 298 298 298
301 302 308 309 309 311 313 310 310 308 310 309 311 311 309 309 310 309 309 307 305 303 302 301 300 299 300 301 302 301 301 301 301 300 299 299 299 299 299 298 298 298 298 297
301 306 306 309 310 317 312 308 309 310 311 310 310 309 309 308 307 306 305 306 304 302 301 299 299 299 300 301 301 301 300 300 300 299 299 298 298 298 298 298 297 297 297 297
300 303 307 309 312 311 314 308 309 309 308 309 309 308 306 306 305 307 303 304 303 301 300 300 300 300 300 300 300 300 299 299 298 298 298 298 298 298 297 297 297 296 296 296
301 303 307 308 312 315 313 308 306 306 306 307 307 307 305 305 308 305 303 302 300 300 300 300 300 299 299 298 298 299 298 298 298 298 298 298 297 297 297 297 296 296 295 295
306 306 305 308 308 310 309 309 305 306 306 307 307 306 305 305 304 302 300 299 299 299 299 299 299 298 298 298 299 298 298 298 297 297 297 297 297 296 296 295 295 294 294 293
309 308 307 307 309 313 308 307 308 305 306 307 307 306 305 304 301 300 299 298 298 297 298 298 298 298 298 298 299 297 297 297 297 297 297 296 295 295 294 294 293 292 291 290
309 309 310 309 310 308 308 307 307 304 305 307 307 306 303 302 301 300 299 297 297 298 297 297 298 297 297 298 298 298 297 297 297 296 295 294 294 293 292 292 290 290 290 290
307 305 309 310 310 308 307 306 307 304 305 306 306 304 302 302 300 299 298 296 296 297 296 297 297 297 297 297 297 297 296 296 296 294 293 293 292 291 290 290 290 289 290 290
303 303 304 305 304 306 306 306 305 305 305 305 305 304 302 301 300 299 297 296 297 297 297 297 297 297 297 297 296 296 295 295 294 293 292 292 290 289 288 288 288 289 289 289
301 301 303 304 303 304 306 307 305 305 305 304 304 305 302 301 300 298 297 297 297 297 297 297 297 297 296 296 295 295 294 294 293 292 292 290 289 288 288 288 288 288 288 288
Wind_Speed
4 4 4 9 5 5 6 4 6 9 9 5 8 8 9 10 8 8 8 7 8 10 17 30 26 33 27 32 32 35 38 40 44 44 43 37 35 33 31 28 25 24 25 24
5 3 5 7 6 5 6 7 12 10 6 4 9 11 8 7 7 8 7 8 8 7 9 13 26 28 34 37 39 42 47 43 49 39 37 29 39 32 28 25 24 24 25 24
3 6 6 5 7 6 6 7 6 10 10 4 7 7 6 4 5 6 5 7 7 10 11 14 19 31 32 33 40 47 51 42 37 44 37 29 34 26 24 21 21 21 24 25
4 5 5 7 5 2 6 4 9 13 10 6 8 5 5 7 7 5 7 9 10 9 8 13 18 26 33 33 28 27 25 26 36 44 35 40 32 23 20 25 26 19 22 22
7 5 7 4 5 2 9 11 8 7 7 4 6 2 7 7 7 14 12 13 14 9 8 12 16 29 31 29 28 27 22 20 22 31 30 32 24 25 24 23 18 21 17 19
6 4 3 3 10 4 10 4 4 4 3 2 4 6 5 4 8 14 11 12 11 7 5 5 10 17 28 31 36 38 33 28 22 27 26 26 24 26 20 20 22 20 20 16
8 6 6 2 7 3 9 6 4 6 5 6 6 2 6 8 8 9 11 9 9 7 6 7 9 14 22 21 19 20 27 24 29 28 24 27 27 22 12 19 24 25 23 19
4 9 5 5 2 5 4 3 2 3 5 5 7 7 5 5 6 7 11 10 11 12 8 6 3 5 11 14 14 15 17 20 24 16 19 13 13 18 20 20 23 25 22 24
5 6 5 4 4 2 5 5 2 3 4 3 3 2 5 9 10 11 12 14 15 13 12 9 7 11 10 13 15 16 16 19 24 20 20 9 17 16 13 15 20 21 20 19
1 6 3 7 2 3 2 6 2 3 5 5 6 3 5 13 13 12 11 11 10 11 11 11 10 14 17 14 21 22 16 19 19 18 19 16 15 14 13 13 17 18 18 18
1 2 7 4 2 2 5 4 3 4 1 2 5 4 4 6 9 7 8 7 8 9 9 8 8 12 21 20 23 20 16 17 16 16 14 14 12 12 12 14 15 16 17 18
1 3 5 7 6 3 3 2 3 3 3 2 1 5 4 5 5 6 6 7 5 7 11 10 9 15 19 18 20 19 18 19 18 18 19 18 17 17 19 20 20 18 17 14
2 1 5 9 6 5 4 4 2 1 2 3 2 5 3 5 7 7 6 5 6 9 10 5 9 12 14 19 21 23 23 23 23 26 28 27 26 24 22 19 16 13 11 9
2 2 5 5 7 0 7 13 4 1 1 1 3 5 8 5 4 5 5 5 7 7 5 5 6 10 18 21 24 24 23 24 25 26 26 25 22 20 17 15 12 8 7 5
3 3 3 7 13 6 8 10 8 2 3 2 2 2 5 6 1 2 4 4 7 6 6 6 6 7 16 21 24 26 26 25 25 25 24 21 18 15 13 11 10 8 6 4
3 3 3 6 3 2 6 8 5 2 2 0 1 1 2 4 2 3 2 6 6 6 6 6 6 11 16 21 22 23 22 21 19 19 19 16 14 12 10 8 6 4 3 2
1 1 2 5 5 7 3 4 2 1 1 2 3 2 4 0 1 2 2 5 6 6 6 7 7 11 17 19 21 20 19 17 17 16 14 12 10 9 7 5 4 3 1 2
4 3 2 4 7 2 4 4 3 4 3 3 2 2 4 4 2 3 4 4 6 7 7 6 11 13 14 15 16 16 14 13 13 13 11 9 8 7 6 3 2 1 1 4
4 4 0 0 2 6 2 3 3 3 4 6 4 4 3 3 0 3 3 5 6 6 7 12 14 14 14 15 16 15 12 11 11 10 9 7 5 4 2 1 1 2 5 7
4 4 3 1 1 4 4 1 1 2 5 6 7 6 6 4 1 4 2 5 6 11 15 17 14 17 17 15 15 15 13 12 11 7 5 3 1 1 1 1 3 5 7 9
3 2 5 3 3 8 7 3 3 1 6 5 6 6 8 5 5 2 4 5 11 15 19 19 20 18 16 14 15 15 11 10 7 5 3 2 1 1 2 3 6 7 8 8
7 6 4 2 2 7 6 4 6 6 1 4 4 5 6 4 5 5 6 7 13 17 19 18 18 15 13 13 13 13 10 6 4 3 3 3 3 2 4 6 8 8 7 9
2 6 5 8 6 5 4 5 4 5 5 4 4 4 6 7 6 8 7 8 11 18 20 17 18 15 12 11 11 11 7 4 4 5 6 6 5 6 8 8 7 6 9 9
3 3 3 1 6 8 7 5 4 7 6 5 4 7 8 7 8 7 8 7 11 17 20 20 20 18 14 11 11 10 7 5 4 5 5 5 7 8 8 8 7 9 9 12
5 4 5 7 7 7 8 7 6 6 5 5 4 7 8 8 7 8 7 9 17 20 19 20 20 18 15 12 11 8 5 3 3 4 5 6 7 10 11 10 8 9 10 13
7 8 7 11 7 6 6 3 5 7 8 8 7 5 6 9 11 9 7 17 21 22 21 18 18 18 16 12 10 6 4 2 2 3 4 5 8 9 11 11 11 9 12 15
Wind_Direction
349 25 286 274 261 257 276 269 270 273 263 267 262 264 252 263 288 283 278 262 260 217 224 210 201 198 201 185 185 185 198 210 207 204 199 193 192 187 190 192 185 185 188 188
6 255 262 278 281 293 297 279 285 285 270 276 274 280 254 250 251 252 260 282 257 247 232 203 193 179 189 180 184 190 209 206 206 199 195 186 186 185 189 189 192 188 190 189
211 261 305 312 309 307 287 269 279 274 311 247 281 279 251 276 265 272 284 291 291 258 240 176 181 186 184 182 189 193 205 204 191 195 189 177 178 184 187 194 190 192 197 192
251 277 296 301 280 273 309 248 297 303 320 308 5 290 317 267 287 8 329 313 298 301 232 173 179 181 184 189 192 199 205 195 190 193 179 179 175 172 193 194 196 189 205 194
266 295 317 307 276 358 259 319 311 311 306 19 358 307 277 345 344 335 322 311 298 295 211 180 178 179 172 171 180 191 188 179 184 177 179 172 171 182 194 198 201 186 210 203
257 274 257 261 302 273 288 338 17 19 39 42 347 353 303 345 312 316 311 318 304 302 133 152 178 171 172 174 181 198 191 192 188 180 176 174 191 185 179 191 191 203 203 216
329 311 297 278 320 337 41 12 347 354 8 1 15 310 278 296 309 309 313 320 348 4 106 133 162 179 178 181 186 178 182 178 184 189 195 196 197 191 199 210 198 199 208 219
25 328 353 341 254 285 28 90 64 285 355 310 349 339 328 304 315 8 18 21 33 50 65 64 85 140 154 165 165 171 174 180 181 178 175 181 182 223 219 211 198 203 205 217
5 281 303 235 289 41 320 46 173 159 198 309 261 220 284 348 28 5 13 32 25 25 38 34 51 50 96 129 164 168 152 156 176 176 158 213 232 217 207 202 205 209 204 206
251 299 264 299 8 37 53 160 59 10 357 336 311 341 316 341 0 340 20 23 31 23 26 29 26 54 69 94 120 122 136 146 162 156 175 182 177 195 189 199 198 203 201 190
110 134 289 335 47 307 343 3 56 114 11 337 310 314 347 336 344 2 16 23 34 42 37 35 35 55 76 87 100 107 111 114 120 128 143 151 160 168 182 178 174 177 168 160
235 164 287 263 285 261 228 314 82 96 265 258 202 281 8 8 0 40 57 40 36 60 54 24 30 60 75 82 91 102 113 121 121 126 131 129 132 135 134 129 132 138 139 139
188 332 330 348 356 7 2 310 33 229 108 167 85 292 57 25 30 19 52 54 61 57 59 17 40 55 68 78 89 104 114 117 122 123 118 117 117 117 116 119 123 128 132 134
62 168 177 213 237 6 310 311 349 52 95 268 223 289 325 344 41 43 41 54 63 67 71 61 52 59 79 90 104 109 112 117 117 115 114 112 112 114 115 115 116 117 114 116
81 265 216 256 262 261 261 270 296 277 280 157 268 301 308 304 347 66 123 102 93 95 88 85 81 75 89 92 103 108 111 115 116 113 110 108 108 107 105 101 100 100 98 99
355 278 356 288 308 185 271 261 240 286 322 272 119 292 295 313 41 99 113 117 116 113 110 105 98 96 98 109 111 113 113 114 115 111 106 108 105 100 94 100 97 90 78 46
302 212 22 271 331 313 290 231 220 161 219 241 225 213 155 328 197 275 191 157 152 149 148 140 125 121 125 126 128 125 123 122 114 112 111 109 107 106 106 105 105 94 45 351
194 169 155 274 340 250 267 320 191 159 220 232 209 189 187 176 223 282 264 197 169 157 151 139 137 133 134 133 132 128 124 118 115 115 118 121 125 125 126 121 103 70 3 332
170 142 106 34 270 289 276 205 204 175 267 191 181 155 167 152 57 278 247 216 185 166 152 152 147 137 134 134 136 129 119 117 117 113 114 117 118 121 123 87 61 345 324 316
98 71 117 117 110 246 246 237 123 86 290 201 161 175 161 155 72 256 176 154 130 144 154 148 147 140 135 133 135 126 118 113 105 102 93 80 61 36 24 334 325 323 320 313
140 168 196 207 255 284 242 225 128 104 245 177 180 182 162 184 198 212 122 83 129 141 145 143 141 138 137 139 135 118 116 101 92 73 52 32 349 342 334 332 324 322 318 308
172 158 195 132 190 267 187 106 171 216 229 181 184 189 186 175 138 136 123 126 132 131 139 142 134 134 138 141 131 118 104 96 76 52 44 55 70 39 356 339 326 316 317 320
243 193 188 184 212 249 221 228 227 176 174 198 177 189 168 152 170 155 146 143 145 145 145 145 136 129 131 134 128 117 99 87 77 76 76 69 42 7 345 334 332 331 328 324
253 163 207 45 243 238 245 247 231 196 209 195 178 169 172 170 166 158 148 149 147 151 151 147 137 130 123 123 113 106 105 94 77 79 58 23 8 1 356 344 335 339 334 322
206 154 202 256 262 300 270 227 217 202 198 168 153 173 185 161 177 165 160 160 161 161 161 158 149 141 134 131 114 107 93 61 75 67 31 19 13 355 345 341 331 329 329 324
186 209 211 245 223 193 234 224 211 191 195 194 171 168 174 176 177 164 171 169 164 164 165 161 155 147 144 136 121 106 80 55 50 22 18 18 355 353 348 342 333 324 324 326